Location: Bégole
(43.1574°N, 0.3291°E)
Time: 02:18:48
(UTC+00:00)

deb Delta 89 - Pass Details

Date: 23 February 2024
Orbit: 714 x 2021 km, 97.5° (Epoch: 13 April)

Event Time Altitude Azimuth Distance (km) Brightness Sun altitude
Rises 06:01:03 0° 5° (N) 5,405 ? -8.8°
Reaches altitude 10° 06:07:57 10° 336° (NNW) 4,482 ? -7.6°
Maximum altitude 06:10:26 11° 323° (NW) 4,395 ? -7.1°
Drops below altitude 10° 06:12:55 10° 310° (NW) 4,460 ? -6.7°
Enters shadow 06:16:51 - 292° (WNW) 4,852 ? -6.0°
